Oakland, CA

9:38 AM PDT on October 01, 2016 (GMT -0700)
Metro Oakland International

Weather History for KOAK - May, 2013

Change the Weather History Date:

Thursday, May 30, 2013

  Actual Average Record
Temperature  
Mean Temperature 60 °F 60 °F  
Max Temperature 69 °F 69 °F 94 °F (2001)
Min Temperature 51 °F 52 °F 46 °F (2000)
Degree Days  
Heating Degree Days 5 5  
Month to date heating degree days 100 177  
Since 1 July heating degree days 2368 2763  
Cooling Degree Days 0 0  
Month to date cooling degree days 28 0  
Year to date cooling degree days 41 6  
Growing Degree Days 10 (Base 50)    
Moisture  
Dew Point 52 °F    
Average Humidity 74    
Maximum Humidity 100    
Minimum Humidity 48    
Precipitation  
Precipitation 0.00 in 0.02 in 0.08 in (1990)
Month to date precipitation 0.02 0.67  
Year to date precipitation 2.65 13.03  
Since 1 July precipitation 13.64  
Sea Level Pressure  
Sea Level Pressure 29.99 in    
Wind  
Wind Speed 7 mph (WSW)    
Max Wind Speed 17 mph    
Max Gust Speed 20 mph    
Visibility 10 miles    
Events      
T = Trace of Precipitation, MM = Missing Value Source: NWS Daily Summary

Daily Weather History Graph

Daily Weather History Graph

Search for Another Location

Airport or City:

Trip Planner

Search our weather history database for the weather conditions in past years. The results will help you decide how hot, cold, wet, or windy it might be!

Date:

Astronomy

May. 30, 2013 Rise Set
Actual Time 5:49 AM PDT 8:23 PM PDT
Civil Twilight 5:18 AM PDT 8:54 PM PDT
Nautical Twilight 4:41 AM PDT 9:32 PM PDT
Astronomical Twilight 3:58 AM PDT 10:15 PM PDT
Moon 12:32 AM PDT (5/30) 11:59 AM PDT (5/30)
Length of Visible Light 15h 35m
Length of Day
14h 34m
Waning Gibbous, 61% of the Moon is Illuminated
May 30
Waning Gibbous
May 31
Last Quarter
Jun 8
New
Jun 16
First Quarter
Jun 23
Full

Hourly Weather History & Observations

Time (PDT) Temp. Dew Point Humidity Pressure Visibility Wind Dir Wind Speed Gust Speed Precip Events Conditions
12:53 AM 54.0 °F 54.0 °F 100% 29.97 in 10.0 mi NW 4.6 mph - N/A   Clear
1:53 AM 54.0 °F 54.0 °F 100% 29.96 in 10.0 mi Calm Calm - N/A   Clear
2:53 AM 55.0 °F 54.0 °F 96% 29.96 in 10.0 mi West 4.6 mph - N/A   Clear
3:53 AM 55.0 °F 54.0 °F 96% 29.96 in 10.0 mi West 4.6 mph - N/A   Clear
4:53 AM 52.0 °F 52.0 °F 100% 29.97 in 10.0 mi WSW 6.9 mph - N/A   Partly Cloudy
5:53 AM 52.0 °F 52.0 °F 100% 29.98 in 10.0 mi SSW 5.8 mph - N/A   Clear
6:53 AM 53.1 °F 53.1 °F 100% 29.99 in 10.0 mi SSW 4.6 mph - N/A   Scattered Clouds
7:53 AM 55.9 °F 53.1 °F 90% 30.00 in 10.0 mi South 4.6 mph - N/A   Scattered Clouds
8:53 AM 57.0 °F 53.1 °F 87% 30.01 in 10.0 mi SW 3.5 mph - N/A   Scattered Clouds
9:53 AM 59.0 °F 52.0 °F 78% 30.02 in 10.0 mi West 4.6 mph - N/A   Scattered Clouds
10:53 AM 62.1 °F 48.9 °F 62% 30.02 in 10.0 mi WSW 8.1 mph - N/A   Partly Cloudy
11:53 AM 64.0 °F 48.0 °F 56% 30.02 in 10.0 mi WSW 8.1 mph - N/A   Clear
12:53 PM 66.0 °F 48.0 °F 52% 30.02 in 10.0 mi WSW 10.4 mph - N/A   Clear
1:53 PM 66.9 °F 46.9 °F 49% 30.01 in 10.0 mi WSW 12.7 mph - N/A   Clear
2:53 PM 68.0 °F 48.9 °F 50% 30.00 in 10.0 mi West 13.8 mph - N/A   Clear
3:53 PM 66.9 °F 51.1 °F 57% 30.00 in 10.0 mi WSW 16.1 mph - N/A   Partly Cloudy
4:53 PM 64.0 °F 50.0 °F 60% 29.99 in 10.0 mi WSW 12.7 mph - N/A   Partly Cloudy
5:53 PM 64.0 °F 52.0 °F 65% 29.98 in 10.0 mi WSW 11.5 mph - N/A   Partly Cloudy
6:53 PM 63.0 °F 51.1 °F 65% 29.98 in 10.0 mi SW 5.8 mph - N/A   Clear
7:53 PM 62.1 °F 52.0 °F 70% 29.98 in 10.0 mi WSW 6.9 mph - N/A   Clear
8:53 PM 60.1 °F 53.1 °F 78% 29.98 in 10.0 mi WSW 6.9 mph - N/A   Clear
9:53 PM 57.9 °F 54.0 °F 87% 30.00 in 10.0 mi SW 5.8 mph - N/A   Clear
10:53 PM 54.0 °F 51.1 °F 90% 30.01 in 10.0 mi ENE 5.8 mph - N/A   Clear
11:53 PM 57.9 °F 55.0 °F 90% 30.01 in 10.0 mi SW 4.6 mph - N/A   Clear